Wind_Speed
27 28 27 27 26 27 27 28 29 28 28 28 29 30 30 31 32 32 33 34 34 34 34 33 33 32 31 28 26 26 26 25 24 24 22 23 28 29 27 28 27 26 27 27 27 27 25 25 24 24 24 23 24 22 19 21 19 18 20 22 23 22 21 19 17 15 15 13 8 8 10 11 10 7 8 14 16 15 15 15 14 14 19 21 18 21 21 15
27 28 28 28 28 27 27 28 29 29 29 29 29 29 29 30 31 31 32 33 33 34 34 34 33 33 32 28 27 28 28 27 26 25 23 23 25 25 26 28 28 27 27 27 26 25 24 24 24 24 24 21 22 22 20 21 22 21 20 23 24 22 19 18 16 12 12 11 7 7 8 9 11 8 8 11 11 15 16 16 17 17 23 26 21 23 23 18
27 28 28 28 28 28 28 28 28 29 30 30 30 30 29 30 30 31 31 32 32 33 34 34 34 33 31 29 28 29 29 27 27 27 25 23 23 23 25 27 28 27 26 26 25 25 25 22 21 23 23 20 20 21 20 21 24 23 22 23 23 21 18 15 14 12 10 11 9 7 8 8 11 10 10 10 9 14 17 18 21 20 23 25 21 20 21 20
28 28 28 28 28 28 29 29 29 29 29 30 31 31 31 31 31 31 31 31 32 32 32 33 33 33 31 29 29 29 30 27 30 31 25 23 23 22 23 25 27 27 26 26 26 26 27 24 20 20 22 21 20 20 21 22 22 22 25 25 20 18 18 16 16 17 13 13 11 9 10 9 9 11 11 10 10 13 17 20 21 22 24 24 23 21 20 21
28 28 28 28 28 28 29 29 29 29 29 29 30 31 32 32 33 32 32 32 32 32 32 32 32 32 31 29 29 30 28 22 29 33 25 24 24 22 22 24 26 27 27 26 27 27 28 28 25 23 23 22 21 21 23 23 21 21 25 26 20 15 16 15 14 17 17 16 15 14 12 10 9 11 12 12 12 12 15 19 20 23 24 23 25 24 21 22
28 28 28 28 28 29 29 29 29 29 29 29 29 30 31 32 33 34 34 33 33 33 33 32 32 31 30 29 29 30 27 19 24 28 24 24 24 23 23 22 24 27 27 28 28 28 27 29 29 26 24 23 22 23 23 22 22 23 23 23 23 19 15 14 12 15 19 18 16 15 13 12 12 12 13 14 15 12 11 16 19 20 23 26 27 25 24 24
27 28 28 28 28 29 29 29 29 29 29 29 30 30 30 31 31 33 34 34 34 34 34 34 33 32 30 29 29 30 31 26 26 27 22 22 21 23 24 22 24 27 28 29 28 29 29 29 30 26 23 23 24 23 22 21 22 25 23 19 22 22 19 16 14 14 18 18 16 14 14 14 13 13 13 14 16 14 11 14 17 20 24 28 26 25 25 24
28 28 28 28 29 29 29 29 29 30 30 30 30 30 30 30 31 31 32 33 34 35 36 35 34 33 31 31 30 31 32 28 29 30 25 23 21 19 22 23 25 28 29 30 29 28 29 30 29 26 24 24 22 22 21 21 23 26 25 19 18 20 21 20 18 16 16 16 15 16 16 16 14 14 14 14 15 15 15 15 16 22 27 28 26 24 25 25
28 28 28 28 29 29 29 29 30 30 30 31 30 30 30 30 31 31 31 32 33 34 35 36 35 34 33 34 33 34 31 27 29 31 27 27 25 20 21 23 26 29 30 30 29 29 29 30 29 26 23 22 21 21 21 21 23 24 26 23 18 17 19 20 21 19 18 17 15 16 18 18 16 15 17 18 17 15 18 20 18 23 26 26 27 25 24 25
29 29 28 28 29 29 29 29 30 30 31 32 31 31 30 31 31 31 31 31 31 32 33 36 36 34 35 35 37 37 30 26 29 29 27 28 28 26 25 23 24 29 31 31 31 31 30 28 26 24 22 20 20 22 22 23 21 17 20 24 23 20 18 19 19 19 19 18 16 16 17 18 16 16 18 18 19 18 20 23 21 23 26 25 27 25 25 26
30 29 29 29 29 29 29 29 30 30 31 31 32 32 31 31 31 31 31 31 31 30 31 33 34 35 35 36 41 37 28 28 30 29 29 29 28 29 29 26 25 27 31 33 32 32 31 27 22 22 23 21 20 21 22 24 21 16 14 18 23 23 21 20 18 18 18 17 17 17 17 18 18 18 17 14 18 22 22 23 23 23 25 27 27 25 26 27
30 30 30 29 29 29 29 29 29 30 30 31 31 32 32 32 32 32 32 32 31 30 29 30 32 34 35 39 41 31 26 32 32 30 30 30 30 30 29 28 27 26 29 33 33 33 31 27 23 23 23 20 20 19 20 23 22 19 16 15 19 22 25 24 20 19 18 17 15 15 18 21 22 21 18 14 17 22 23 23 24 24 25 27 27 26 27 27
29 29 29 29 29 29 29 29 29 29 29 30 30 31 32 32 32 32 32 32 32 30 29 29 31 33 37 42 37 26 29 34 32 33 31 30 31 30 29 29 28 27 27 31 34 34 33 30 26 25 22 18 20 18 16 18 22 20 17 17 17 20 26 26 24 21 20 19 15 15 20 24 25 23 20 18 19 21 23 24 25 26 27 28 27 27 29 30
29 28 28 28 28 28 29 29 29 29 29 30 30 30 31 31 32 33 33 33 31 31 30 30 31 31 38 41 30 25 32 34 34 35 31 31 31 30 29 29 29 28 27 29 33 35 35 33 26 24 25 22 19 18 14 15 20 20 18 19 20 21 24 23 25 24 22 21 18 18 20 21 22 24 24 21 21 22 25 26 26 27 29 30 29 28 30 31
29 28 27 27 27 27 27 28 29 29 30 30 30 30 30 31 32 32 33 32 31 31 30 30 31 31 38 39 27 26 31 32 35 34 32 31 30 29 30 29 29 29 28 27 31 34 35 33 29 26 27 24 20 18 17 17 19 20 20 22 23 24 22 19 23 25 24 21 20 21 21 21 21 23 26 24 22 24 26 26 28 30 31 31 31 29 30 32
28 27 27 27 27 27 27 28 29 29 30 30 30 29 29 30 30 31 33 31 31 31 30 31 29 30 36 31 23 26 29 29 31 32 33 32 30 29 29 29 29 30 30 28 29 32 34 35 34 30 25 25 26 21 17 21 22 22 25 24 23 25 23 19 20 22 23 21 22 24 22 22 22 22 26 24 23 26 28 27 29 33 33 31 32 30 30 32
27 27 27 28 28 29 29 29 29 30 30 29 29 29 29 30 30 30 31 30 29 29 30 30 25 27 33 25 19 21 21 24 28 30 33 32 31 29 28 30 31 30 30 29 28 30 34 37 35 31 26 26 29 25 20 25 27 25 27 26 23 23 23 20 19 21 23 22 23 26 24 24 21 20 24 23 24 27 29 27 27 33 34 32 33 31 30 31
26 27 27 28 28 29 30 30 30 30 30 29 27 27 27 28 29 28 27 26 26 26 28 29 24 21 21 17 18 21 18 22 25 28 32 32 32 31 29 30 29 30 30 29 29 29 32 35 32 28 29 30 31 32 30 28 27 25 24 25 23 21 24 24 19 19 25 25 24 25 27 29 22 18 21 21 23 27 30 30 30 34 34 34 36 33 30 30
26 27 27 28 28 29 30 30 30 30 30 28 26 25 25 24 24 22 21 22 23 25 23 22 24 21 10 2 7 18 24 24 22 24 29 31 32 31 30 29 27 29 31 29 29 30 30 30 31 33 36 37 35 36 35 26 21 22 21 21 23 22 23 25 19 17 24 26 26 26 28 31 24 18 21 21 23 27 30 33 35 37 35 35 37 33 31 32
26 27 27 27 28 29 29 29 30 30 30 28 24 23 21 17 16 16 17 20 23 25 22 17 20 24 20 11 4 10 17 21 23 22 23 29 32 31 32 30 25 27 31 29 27 30 29 30 37 41 39 35 33 32 32 27 20 20 21 20 23 24 19 20 19 15 21 25 27 26 26 30 26 19 21 22 23 27 28 29 35 40 39 38 38 34 32 33
26 26 27 27 27 28 28 29 30 29 29 26 22 20 17 11 13 16 17 20 21 23 24 22 21 24 24 21 16 14 12 14 20 20 20 27 31 31 34 33 28 29 33 28 24 26 29 35 41 40 34 30 31 31 29 29 25 19 20 21 23 24 19 20 20 15 19 22 24 26 25 28 29 22 20 23 24 26 27 25 30 36 36 36 36 34 34 34
25 26 26 27 27 27 28 29 28 28 28 24 19 17 15 11 14 18 20 25 26 24 25 25 26 27 26 23 23 24 22 20 19 20 22 25 29 31 32 35 32 31 31 28 26 28 33 40 38 32 30 28 27 29 29 29 27 21 19 20 22 23 19 20 20 16 18 21 21 24 26 26 30 26 21 24 26 25 28 28 30 31 29 29 30 32 35 35
25 27 27 27 27 27 28 28 27 27 24 20 15 14 14 12 14 17 21 28 30 26 27 28 28 28 27 23 21 25 31 29 23 23 25 26 29 29 28 34 33 28 31 34 33 32 35 36 32 28 29 29 27 28 29 28 28 24 21 20 21 22 20 18 19 17 16 19 19 21 26 25 27 29 25 25 27 25 26 29 32 33 32 29 28 32 35 35
27 28 28 27 27 27 28 29 25 21 18 15 13 14 14 14 15 17 21 27 32 28 25 25 27 29 27 21 19 26 33 33 29 26 27 28 29 29 27 30 32 29 31 36 34 32 31 26 27 29 28 30 30 28 29 30 28 26 24 22 20 21 22 18 16 17 16 19 20 18 23 26 27 29 28 26 27 27 25 26 30 35 38 33 29 32 33 33
28 28 28 28 27 27 28 27 19 13 15 14 14 14 14 15 14 17 20 23 27 24 16 18 25 27 23 18 20 25 29 34 35 29 25 27 29 29 26 26 31 32 32 34 33 31 28 22 24 30 30 31 32 29 30 31 28 26 26 24 19 16 20 19 14 17 18 20 23 20 16 21 26 28 27 26 28 28 26 27 30 34 36 35 31 31 32 33
28 28 28 27 26 27 26 23 15 13 16 15 15 14 14 13 11 13 16 18 23 21 13 14 18 19 18 23 26 23 22 32 38 30 24 26 30 28 23 25 30 31 30 30 30 29 27 23 24 30 32 31 32 30 30 32 29 26 27 27 21 16 18 20 16 16 18 18 23 24 17 15 23 30 29 27 27 28 28 28 31 32 31 33 35 33 31 31
27 26 27 26 26 26 24 20 16 15 16 15 16 15 14 14 11 10 10 13 18 15 15 16 11 12 17 23 28 26 17 22 33 34 29 28 31 30 23 25 28 28 27 28 28 29 27 26 26 30 32 32 33 32 29 32 31 25 23 25 25 21 16 18 19 18 17 15 20 27 24 17 21 30 31 29 27 28 29 28 30 30 27 31 36 34 31 30
25 25 25 25 26 25 22 20 16 14 15 17 18 15 14 12 11 11 8 7 6 3 14 19 13 11 17 20 27 28 13 7 23 36 34 29 30 30 25 25 26 26 27 29 29 26 26 28 27 28 32 31 32 30 27 30 29 23 19 20 26 24 17 17 20 19 17 16 19 26 26 19 19 26 29 31 32 31 31 32 31 30 29 31 32 31 33 31
24 25 25 25 26 24 21 20 16 14 17 19 17 15 16 14 11 11 8 6 5 6 9 13 14 12 18 19 22 24 14 7 13 26 33 32 30 30 26 23 24 25 26 29 27 21 23 28 25 26 30 29 29 27 25 27 28 24 17 18 25 24 20 18 19 19 18 17 18 23 27 19 16 24 27 29 35 35 33 32 31 29 27 26 26 28 32 31
24 25 25 25 25 21 20 19 17 16 16 18 16 15 17 15 11 10 8 6 6 8 7 8 11 14 17 18 20 23 19 12 9 18 30 33 30 27 23 20 21 24 25 26 26 21 21 24 25 26 28 27 26 26 26 26 26 24 17 17 23 23 21 18 17 18 15 15 21 25 28 22 15 21 27 28 30 33 33 32 30 28 25 23 25 30 32 30
24 25 25 25 23 20 18 16 17 18 13 13 13 13 14 13 12 10 8 8 5 6 9 9 11 16 18 17 20 23 20 15 14 22 30 31 30 27 23 22 23 25 25 26 28 25 21 23 27 27 26 26 23 25 26 25 27 26 19 18 20 21 20 16 16 17 11 12 22 26 27 24 18 20 25 25 25 26 29 31 30 28 27 25 28 30 29 28
24 24 24 24 21 19 17 14 14 15 10 10 10 9 10 10 11 14 10 7 5 1 7 9 9 14 17 17 19 23 23 19 18 24 30 31 32 31 28 28 29 27 27 28 29 28 24 25 28 25 24 26 24 26 26 26 30 29 24 24 20 15 15 13 12 13 12 14 19 23 26 24 22 24 24 22 24 26 27 29 29 28 27 26 29 30 26 25
23 22 22 21 19 16 15 13 11 9 5 4 4 6 9 8 8 17 15 4 5 5 1 4 5 9 14 15 17 22 24 21 19 24 27 28 29 30 28 28 29 27 25 27 28 29 25 23 27 27 25 28 28 29 29 28 33 33 28 30 22 12 10 10 10 10 13 16 17 21 25 22 22 25 26 23 22 25 27 27 28 27 26 25 26 27 23 22
22 20 19 18 16 14 13 12 9 4 2 2 4 7 10 10 8 12 12 5 10 11 9 7 4 4 10 13 16 22 25 21 21 24 26 27 27 29 30 28 30 27 23 25 28 30 25 19 26 30 26 29 31 30 29 27 32 33 28 29 26 19 13 10 10 10 11 14 18 20 19 20 20 19 24 25 17 16 20 23 26 27 24 23 24 24 22 22
19 16 15 15 13 13 11 9 7 2 1 2 7 10 13 13 9 6 4 6 12 11 10 11 9 8 12 15 17 22 24 20 22 25 25 28 27 28 31 31 31 30 25 25 26 29 27 19 23 28 24 27 32 29 27 26 28 29 28 28 29 27 20 13 12 12 10 10 15 18 16 19 20 14 17 22 17 15 15 17 23 24 22 23 25 24 22 23
15 12 13 13 11 11 10 8 6 4 4 6 10 15 16 12 8 5 3 7 13 14 12 8 6 8 12 18 19 23 23 18 22 25 23 25 26 26 29 29 31 32 28 25 24 27 26 19 22 28 24 26 31 29 27 26 24 26 29 31 30 27 21 16 13 10 9 8 11 18 18 17 18 14 16 19 17 18 18 17 20 22 22 24 26 25 23 23
13 11 11 10 9 10 10 7 7 8 8 9 12 16 16 10 7 7 9 11 13 16 15 9 7 5 4 13 20 25 22 17 23 25 22 23 24 25 27 27 29 33 28 24 23 25 24 18 23 30 26 26 30 28 26 25 23 25 30 29 25 24 22 20 14 7 8 9 9 18 22 20 17 15 19 22 18 18 19 19 20 22 25 27 28 29 27 24
12 11 10 8 7 9 10 7 7 11 12 13 16 17 14 10 7 6 8 13 15 16 13 8 8 6 4 5 17 26 21 18 24 24 21 23 22 24 28 26 28 32 28 24 23 26 24 17 21 28 26 25 30 28 26 28 26 25 25 24 22 22 23 22 16 9 9 9 8 16 20 21 22 19 19 24 24 22 20 19 20 23 27 28 28 30 29 25
13 13 9 6 8 10 9 7 7 11 13 15 18 15 9 8 7 5 7 10 13 12 9 9 10 6 5 7 12 23 18 18 25 23 20 21 19 23 27 24 26 31 29 25 24 26 26 17 18 26 26 24 29 31 30 31 30 25 23 25 25 22 21 23 19 14 11 9 8 13 15 17 24 24 20 20 23 24 23 22 22 22 24 26 25 27 27 23
13 13 7 8 12 10 7 6 6 8 11 14 16 12 8 7 5 6 9 10 11 10 10 13 13 8 7 9 5 17 17 17 23 21 18 19 17 21 27 24 24 29 29 26 23 25 27 19 17 24 27 25 29 32 32 32 32 28 26 29 29 24 21 21 20 19 16 10 7 9 10 13 19 22 21 19 19 21 23 24 24 22 22 22 23 25 25 23
14 12 8 13 14 8 7 6 6 7 9 12 11 8 9 8 5 7 9 9 10 11 13 14 12 11 10 7 2 11 14 16 21 19 15 18 17 18 25 25 24 29 30 28 25 25 26 21 18 23 28 29 29 29 29 29 31 28 25 29 30 26 22 17 16 22 21 13 11 9 8 10 14 17 19 18 17 18 20 22 23 22 21 21 22 22 22 24
12 11 11 14 11 4 5 7 9 9 8 10 9 7 8 8 5 7 8 7 9 11 13 13 8 6 6 2 2 6 10 14 20 16 14 19 17 14 23 25 24 29 30 27 26 24 22 20 19 22 25 25 24 25 27 26 28 28 24 26 27 27 28 21 15 20 21 16 14 13 10 8 10 15 18 16 14 14 16 19 21 20 19 20 23 22 20 23
12 11 12 12 7 2 1 3 6 7 5 7 8 6 6 8 6 6 7 8 9 10 12 10 4 3 4 2 2 5 6 12 18 14 12 18 16 13 22 26 24 29 30 26 26 24 20 18 20 21 21 22 21 23 26 25 26 31 30 29 29 28 30 26 18 17 19 18 16 12 8 7 10 16 21 18 14 15 17 19 20 19 19 21 22 21 21 24
11 10 12 11 7 3 2 5 6 5 5 5 7 5 4 5 5 6 7 8 9 10 10 7 3 5 5 3 4 6 6 10 15 13 12 16 15 13 22 27 26 29 30 26 26 26 21 19 21 19 17 19 20 20 25 29 31 33 34 32 31 28 26 24 20 15 15 19 19 13 8 8 11 14 19 18 17 17 17 18 20 21 21 21 20 20 23 25
12 12 12 9 7 5 3 5 5 4 4 5 6 6 4 3 5 6 7 8 8 8 7 4 4 7 6 5 5 7 8 9 10 10 12 15 14 14 22 27 26 27 28 23 23 25 22 21 23 19 14 14 16 17 24 31 31 29 30 31 30 28 26 24 21 17 14 16 21 19 10 9 12 12 14 16 18 19 20 21 23 23 22 20 19 21 23 24
13 13 11 7 5 5 4 4 4 3 5 6 6 5 3 3 5 5 5 6 7 7 4 3 8 10 8 6 5 6 9 9 6 8 13 14 12 14 21 26 26 26 25 22 22 23 21 21 24 22 19 18 18 17 20 25 26 26 26 28 29 29 28 27 24 21 17 13 18 22 16 11 11 12 12 14 17 19 21 22 23 24 23 21 20 21 21 22
15 15 15 10 5 6 7 6 6 5 5 6 6 4 3 4 5 6 6 6 8 8 3 5 9 10 9 6 6 7 10 10 6 9 13 11 11 16 22 26 25 24 23 23 24 21 18 21 24 22 19 19 19 18 17 20 25 26 25 25 28 29 29 29 27 24 19 14 14 20 23 17 11 12 13 15 19 21 21 20 23 26 25 22 20 20 20 22
16 18 19 15 10 9 8 7 7 5 3 6 7 6 6 6 6 7 9 9 9 6 1 6 8 9 9 8 7 8 11 12 9 10 12 12 14 19 23 24 23 24 24 22 22 21 16 19 23 21 17 16 16 17 19 22 24 25 25 25 25 28 29 29 28 24 21 19 16 16 20 21 14 11 14 16 18 19 18 17 21 23 25 24 21 20 21 22
17 18 18 16 12 9 8 7 8 8 6 7 8 9 10 10 7 8 9 9 5 1 5 6 7 7 7 8 9 8 10 12 11 11 11 13 18 21 24 24 22 22 24 22 22 22 16 15 20 21 18 14 12 13 17 21 23 25 26 25 23 25 27 27 26 25 22 21 19 14 13 18 16 11 15 18 16 14 11 10 13 16 21 23 22 21 21 21
18 18 18 17 12 9 8 8 9 10 8 8 9 10 11 10 9 9 8 4 1 5 5 6 7 5 4 7 10 6 5 10 14 15 14 14 16 20 22 23 23 23 24 23 22 22 17 13 17 20 17 13 11 11 12 15 20 23 25 25 25 24 25 27 27 27 24 22 20 13 9 13 16 14 15 16 13 9 6 4 5 10 16 19 21 22 22 23
15 15 17 17 14 11 9 9 10 10 9 8 11 12 11 10 10 10 6 2 5 5 4 4 5 5 7 11 9 1 6 10 11 13 15 14 15 19 19 19 22 24 24 23 23 23 17 12 15 19 16 13 11 10 11 14 17 21 25 26 26 26 26 27 27 27 27 23 19 16 11 10 14 17 16 13 11 9 7 5 3 6 12 16 19 20 22 27
14 15 16 16 14 12 10 9 10 10 10 10 11 12 11 10 10 10 6 4 5 4 5 6 7 7 8 8 5 5 9 10 8 9 12 11 13 17 15 16 20 23 24 23 23 23 17 10 15 20 16 13 12 8 10 15 15 19 24 27 27 27 25 25 25 26 26 24 20 19 16 11 11 14 14 14 16 14 10 7 5 4 11 16 16 16 20 27
Wind_Direction
294 292 289 287 285 281 279 278 278 277 275 272 270 268 266 264 263 262 261 261 261 261 261 260 260 260 259 259 260 260 258 256 253 251 248 242 241 240 236 234 234 231 230 230 228 228 228 228 229 229 227 224 224 216 214 221 216 215 219 225 233 234 234 235 237 239 233 227 212 205 216 208 211 230 239 246 236 220 222 219 204 195 210 212 206 208 206 212
295 293 291 289 286 283 280 278 277 277 276 275 273 270 268 266 264 263 261 260 260 260 260 259 259 258 258 258 258 258 257 257 255 253 248 244 244 242 236 232 232 230 229 228 226 225 225 226 227 228 225 221 226 221 213 222 219 213 217 225 230 232 235 236 238 238 223 223 217 199 203 207 215 221 235 243 236 221 215 212 200 195 214 211 200 207 209 207
297 295 292 290 287 285 283 280 277 276 276 275 274 273 271 269 267 265 263 261 260 259 259 259 258 257 257 256 256 256 256 256 256 252 248 247 246 242 236 231 230 229 228 227 223 220 219 218 223 227 223 218 224 222 213 220 223 216 217 227 232 232 236 235 229 224 215 221 218 211 224 223 222 231 238 234 227 220 211 205 197 196 213 209 196 198 199 200
298 296 294 292 289 287 285 283 280 277 276 275 274 273 272 271 269 267 265 264 262 260 259 258 257 256 255 254 254 255 255 258 257 251 247 247 245 240 237 232 228 227 226 225 222 218 214 208 211 222 221 217 219 220 215 215 219 219 221 227 230 232 236 235 228 228 229 232 229 228 236 231 229 232 227 222 221 219 211 207 200 201 215 211 197 191 193 199
298 296 294 292 290 288 286 285 283 281 278 276 275 273 272 271 270 269 267 266 264 262 260 259 257 256 254 252 252 253 255 259 259 253 247 245 244 241 237 232 228 225 223 222 220 217 215 208 204 211 214 215 217 219 219 217 217 222 227 229 229 232 236 236 232 232 231 234 235 231 231 229 234 234 226 222 221 221 214 210 205 209 222 219 202 194 199 204
298 296 294 292 291 289 287 286 284 283 281 279 276 274 272 271 271 270 268 267 265 264 262 260 258 257 254 250 249 251 248 245 253 253 248 245 243 241 235 230 227 224 221 220 219 216 215 213 208 208 211 214 217 219 222 219 219 226 232 232 230 232 237 235 231 232 230 231 233 231 230 230 237 236 230 225 219 220 214 209 206 206 222 222 205 198 204 206
299 296 295 293 291 289 288 286 285 283 282 280 278 276 274 273 271 270 269 268 266 265 263 262 260 258 255 251 247 247 243 239 247 249 246 246 241 239 236 228 224 222 220 219 218 216 213 213 212 210 212 216 218 221 224 222 222 228 233 233 233 234 235 231 225 234 240 236 230 227 227 229 235 232 228 228 220 219 206 198 197 194 210 216 205 202 204 203
299 297 295 293 291 290 288 286 285 284 282 281 279 278 277 275 273 271 270 268 266 266 264 263 261 259 256 253 248 245 243 239 245 245 242 245 240 236 235 228 222 220 219 218 217 216 214 214 212 209 214 219 220 222 224 225 226 229 231 232 236 236 232 231 230 237 246 242 232 227 228 229 231 228 229 230 220 220 209 191 185 192 208 209 201 202 202 200
300 298 295 294 292 290 288 286 285 283 282 281 280 279 278 277 275 273 271 269 268 266 266 264 261 259 256 254 251 247 244 237 242 245 240 241 239 234 233 228 222 218 217 216 215 215 213 214 212 209 214 221 224 224 224 226 227 231 234 232 234 236 232 234 236 238 242 241 235 232 233 231 230 230 237 236 223 219 213 201 191 198 210 205 197 199 199 199
301 300 297 295 293 291 289 287 285 283 281 280 280 279 278 278 276 275 274 271 269 267 267 265 263 260 255 253 251 248 245 239 241 243 239 238 237 234 233 230 224 219 216 214 213 212 211 211 212 210 216 224 227 227 225 225 227 230 235 234 233 237 237 236 236 236 239 239 233 231 232 228 228 232 240 239 222 214 209 204 200 204 210 203 196 198 197 198
304 303 301 299 296 294 291 289 287 284 282 280 280 279 277 276 276 276 275 274 272 270 268 266 264 261 257 253 250 247 246 243 240 238 237 235 234 233 231 230 225 221 217 214 212 211 209 207 209 212 219 225 226 230 229 224 224 230 236 237 235 235 238 238 235 232 233 236 232 228 231 227 224 228 233 228 210 209 206 200 200 204 205 200 197 199 199 198
307 306 304 303 300 298 295 292 289 286 283 281 279 278 277 275 275 274 274 275 274 273 270 268 265 262 260 255 251 250 247 245 242 237 235 232 232 231 229 227 225 222 217 215 213 210 208 203 205 213 218 224 225 229 233 226 224 232 237 239 237 234 236 236 231 229 226 228 227 224 229 227 224 225 222 214 208 207 203 196 193 197 200 197 198 201 200 198
309 308 307 306 304 301 299 295 292 289 285 282 279 277 276 275 274 273 273 273 273 274 271 270 267 264 263 257 252 249 244 243 241 237 233 231 230 229 228 226 223 222 217 215 213 210 207 202 204 215 216 221 225 225 232 223 220 227 230 234 237 234 236 235 228 226 225 224 216 212 226 226 223 223 216 214 216 207 198 195 190 194 201 197 196 201 202 200
312 311 310 308 306 304 302 299 296 292 288 285 281 278 276 275 274 272 271 271 272 272 271 271 269 266 264 259 253 247 244 241 239 237 233 229 228 226 226 224 222 221 217 215 213 211 209 202 201 215 220 220 221 225 228 217 215 220 224 230 233 235 237 232 224 221 220 222 211 207 227 229 221 220 212 209 215 204 195 194 190 193 202 200 195 200 202 199
315 315 314 312 311 309 307 304 300 297 292 287 284 281 279 276 273 272 270 270 270 270 270 270 269 270 268 264 256 247 245 242 239 237 233 229 225 224 225 223 221 220 217 214 213 213 209 201 201 211 218 217 216 223 224 217 215 214 219 225 226 231 238 227 216 214 213 215 207 207 224 229 223 215 204 203 210 204 196 194 194 194 200 202 198 199 200 197
317 317 317 316 315 314 312 310 307 303 298 292 288 283 280 276 273 271 269 270 269 269 269 267 270 272 270 268 260 249 247 245 239 234 232 228 224 222 221 221 219 216 217 214 212 212 208 202 204 207 210 211 213 217 219 216 215 212 216 224 221 222 231 223 205 205 208 206 205 208 217 228 229 208 194 200 206 203 200 196 197 200 199 200 199 199 200 198
317 317 317 317 317 316 315 313 311 308 303 299 293 285 279 276 273 271 271 270 268 268 267 266 268 269 269 266 255 252 251 243 236 231 230 226 223 219 216 219 217 214 214 213 211 210 207 205 204 206 208 211 212 211 213 212 211 210 212 221 224 219 223 219 197 197 205 203 205 209 214 227 228 197 188 201 204 202 204 199 197 202 200 200 200 198 199 200
317 317 317 318 318 318 317 316 315 311 307 304 297 288 279 275 274 273 271 268 266 264 262 261 254 256 276 274 246 243 243 239 233 227 226 222 219 215 213 216 216 213 210 210 211 207 206 206 204 208 211 212 209 206 211 212 208 209 209 216 222 219 219 217 203 199 205 204 206 207 211 224 226 201 194 203 204 203 204 203 200 202 201 201 201 198 198 201
316 317 317 318 318 319 319 319 318 314 310 308 301 291 283 277 277 276 273 268 260 251 248 259 255 241 243 280 237 235 233 234 231 223 223 219 215 212 209 210 211 210 206 206 210 206 202 201 202 209 210 209 207 206 211 215 213 214 214 214 217 219 217 216 213 205 201 202 207 207 209 219 223 210 203 205 205 205 208 210 206 204 204 203 202 199 198 200
316 316 316 317 319 320 321 322 320 316 313 309 302 294 287 279 279 282 278 268 258 250 242 248 263 251 229 207 201 237 237 236 232 222 218 216 211 208 205 202 200 205 204 200 205 204 198 199 205 209 209 207 208 209 213 218 221 222 219 215 217 221 217 211 214 202 195 201 207 209 211 216 218 211 206 206 204 206 214 214 205 204 206 203 200 200 200 202
317 317 317 317 319 321 323 323 320 317 314 308 301 294 287 274 267 265 261 257 254 255 251 240 249 254 238 216 205 219 228 231 228 213 210 215 205 200 202 196 191 199 201 196 198 199 197 206 211 209 208 207 209 210 212 216 222 225 223 218 216 218 214 209 210 196 191 205 210 210 213 215 216 213 208 208 206 207 213 211 201 204 208 204 197 197 202 204
320 320 319 319 321 323 324 324 321 317 314 307 299 292 285 268 256 253 254 259 256 254 258 252 245 246 242 226 212 217 220 218 218 202 202 212 201 195 200 196 193 198 197 191 193 195 201 213 214 208 207 207 209 211 211 215 218 222 225 221 214 211 208 205 204 197 194 208 213 210 214 217 215 216 213 210 210 211 214 215 211 209 209 206 200 202 204 203
322 322 322 321 322 324 326 326 322 318 314 308 299 294 287 267 255 254 257 263 263 256 254 254 251 247 245 236 218 219 223 221 218 205 201 208 198 190 196 199 196 196 194 193 195 196 204 214 211 204 207 207 209 211 210 214 216 218 220 215 208 204 204 200 197 198 199 208 215 211 214 219 217 217 218 214 211 214 217 219 221 217 212 208 203 206 207 204
322 322 323 322 323 325 327 328 325 320 318 311 298 293 284 269 257 253 259 265 269 267 260 257 256 250 244 235 219 219 224 223 220 211 205 208 195 184 195 201 197 198 199 198 199 203 208 211 205 203 206 207 210 210 206 210 212 213 213 208 206 204 206 206 197 197 204 213 219 219 216 217 216 215 214 214 212 214 216 216 221 221 218 217 208 204 205 206
320 322 322 322 324 325 328 331 328 318 314 306 291 285 275 271 260 253 266 274 274 275 276 262 251 247 236 215 213 219 223 224 220 208 204 211 196 184 195 200 199 203 202 200 202 208 211 207 201 201 205 206 208 208 204 205 208 209 210 212 216 213 211 213 204 196 203 211 212 215 218 213 213 214 211 209 209 213 214 212 219 222 220 221 220 212 206 209
321 322 322 322 325 326 329 331 320 305 304 295 285 279 266 268 259 250 265 274 275 274 262 242 236 237 219 201 204 208 218 228 220 200 192 208 197 184 194 199 201 206 203 199 204 211 211 205 200 201 203 205 205 207 204 202 208 210 210 214 221 225 218 214 208 198 202 209 203 207 221 215 210 214 213 207 207 213 215 214 219 222 221 222 224 222 213 216
323 324 324 325 327 328 330 328 312 298 295 282 278 274 262 260 246 238 253 267 279 267 220 204 208 219 204 199 200 190 202 234 222 201 190 200 194 182 194 201 200 205 199 196 204 211 207 200 202 202 202 204 204 207 204 201 207 211 209 211 214 222 224 211 206 205 210 215 202 203 218 231 220 214 209 207 211 214 216 218 215 212 218 223 223 222 220 226
324 327 328 328 331 331 331 330 313 290 284 277 275 270 255 244 230 226 228 251 277 165 176 186 195 200 182 191 199 190 193 228 211 205 194 193 192 184 195 202 199 202 195 196 205 205 200 200 203 200 198 200 201 203 199 198 207 212 208 207 208 213 220 212 211 214 217 222 210 199 209 233 237 219 207 208 215 217 214 217 217 212 218 224 222 221 226 234
323 328 330 330 334 334 330 328 313 288 280 274 271 266 244 220 209 217 212 244 243 137 150 182 189 178 165 185 198 187 192 184 194 209 198 191 189 185 195 200 198 202 198 202 208 200 197 202 199 192 192 196 199 200 199 200 206 210 209 203 203 207 213 214 216 218 218 227 223 202 200 219 237 224 212 209 214 216 213 214 219 222 223 223 217 217 225 233
320 326 330 331 334 332 325 324 315 300 284 268 266 262 243 218 208 216 206 237 236 157 157 184 182 173 169 186 188 177 190 193 181 200 195 191 187 184 194 198 196 204 202 204 209 204 198 199 196 193 195 199 202 204 206 205 203 205 207 199 195 200 206 210 217 219 219 228 228 214 206 213 229 225 216 212 214 215 213 214 215 218 221 214 207 214 225 230
317 321 326 330 331 327 326 324 313 311 297 270 270 261 245 232 221 218 209 232 243 158 167 179 170 174 176 182 183 181 190 192 177 178 181 185 187 185 192 195 194 200 201 201 205 205 198 196 198 199 201 203 202 204 205 202 200 200 199 190 187 191 199 207 213 219 227 226 222 217 214 216 222 225 220 214 216 215 214 215 214 212 214 209 204 216 227 227
315 316 321 326 327 325 328 324 312 314 305 283 283 256 242 251 233 220 220 236 264 176 156 164 166 176 181 184 186 186 186 186 182 178 177 180 185 188 190 190 187 189 195 196 197 199 197 198 200 201 203 201 198 199 195 192 197 198 191 188 189 188 193 204 205 209 226 227 216 211 215 222 223 225 223 214 212 216 217 217 215 213 213 212 213 220 225 224
315 315 317 320 323 325 328 328 321 317 315 308 285 234 235 265 246 220 219 244 317 305 219 157 160 168 183 193 192 186 185 187 185 182 182 182 184 189 193 192 189 189 192 189 188 192 193 195 199 200 203 200 199 197 189 187 196 197 190 189 195 190 185 200 202 205 220 224 217 209 213 225 226 222 226 224 214 212 217 218 217 216 214 214 216 219 220 220
315 314 314 316 322 329 332 331 325 318 17 103 192 224 237 249 253 227 224 296 329 309 295 283 269 201 202 202 190 181 183 189 186 182 183 183 185 190 193 195 195 194 191 185 189 193 190 192 197 198 198 197 199 200 191 189 196 197 193 195 202 202 193 196 203 207 215 214 213 211 212 220 222 217 221 227 221 207 212 214 213 212 210 209 214 220 222 221
320 316 315 317 318 325 331 325 316 296 141 203 230 238 241 246 259 245 235 326 337 334 309 285 280 266 228 203 188 181 181 183 181 182 186 186 189 190 191 194 194 193 190 186 190 195 196 199 198 196 196 194 196 198 194 194 196 194 195 203 210 207 199 200 212 220 225 219 208 208 214 220 220 217 214 218 217 206 203 203 205 205 200 202 212 219 218 215
330 323 317 317 308 313 320 305 281 237 229 273 266 247 244 256 277 266 264 335 345 352 340 311 295 273 221 197 188 181 181 180 177 183 189 189 192 192 191 193 192 193 193 189 190 192 196 200 193 189 193 194 194 194 195 196 192 188 196 208 210 206 203 201 211 227 234 232 205 200 211 217 216 219 213 211 210 203 198 197 202 199 194 202 212 213 210 211
337 329 317 309 296 303 315 294 248 233 250 278 272 257 256 275 308 296 277 289 317 341 347 339 322 318 201 190 184 175 179 181 176 183 187 188 195 193 191 193 193 195 196 193 192 189 189 191 183 184 190 193 192 193 197 199 193 189 199 207 204 204 213 209 203 211 215 224 208 197 206 209 209 210 204 207 210 202 199 202 205 203 201 209 215 215 218 224
342 334 312 292 294 307 312 296 246 236 252 271 271 272 280 291 316 326 293 282 296 319 337 332 311 335 6 225 183 170 179 182 177 184 184 186 195 191 190 192 191 196 197 194 192 187 187 184 176 184 191 189 190 195 200 201 201 200 200 202 199 201 212 211 206 200 200 217 213 198 204 210 214 210 199 204 211 209 209 207 204 205 207 212 216 219 222 225
346 336 306 278 305 311 304 297 265 238 243 259 265 269 288 302 302 305 300 294 297 306 322 322 307 313 332 288 190 170 181 180 175 182 182 186 193 185 187 190 187 192 194 193 192 187 189 185 171 184 191 184 188 197 200 196 200 209 205 201 204 207 210 212 213 209 203 212 216 205 206 212 216 214 206 204 207 210 214 211 206 204 208 211 212 219 223 219
345 341 311 299 312 303 287 288 267 235 237 253 262 267 288 306 302 294 295 296 298 302 309 314 308 298 309 309 211 174 181 178 176 183 182 183 183 178 184 187 184 187 189 192 191 186 191 188 169 180 188 188 192 197 198 192 192 202 205 200 202 207 210 212 213 213 211 210 210 213 215 212 209 210 210 205 203 209 211 210 207 202 205 206 204 213 220 216
345 345 329 323 318 287 256 265 245 231 247 262 272 284 293 291 290 301 300 296 299 302 307 313 305 287 291 308 212 173 176 173 177 183 180 176 173 175 185 187 183 183 186 190 190 187 192 188 173 179 188 195 197 195 197 196 193 199 206 203 201 201 203 207 209 211 216 216 206 208 223 218 205 205 209 203 200 207 208 207 205 200 203 202 197 207 215 212
354 346 338 337 332 278 243 260 249 240 255 278 287 297 300 295 292 297 297 298 302 303 309 315 304 274 266 241 184 191 180 171 176 183 177 172 173 175 182 184 181 181 182 184 185 185 187 183 178 183 189 194 196 191 194 199 198 201 206 205 204 203 204 208 208 206 213 222 217 213 216 206 188 189 194 190 187 193 193 193 194 192 195 197 198 205 208 209
1 345 347 357 7 62 64 313 281 260 259 289 299 306 300 288 276 278 287 296 302 304 307 309 293 219 200 176 283 259 203 171 173 181 177 175 182 183 178 180 181 181 182 183 182 182 183 181 176 177 182 186 189 191 195 200 203 204 206 206 208 209 207 212 217 211 213 223 222 216 207 172 157 174 181 179 178 182 182 181 181 181 183 193 204 207 203 206
4 350 354 8 28 51 11 348 338 304 282 298 309 315 289 269 271 280 286 289 291 297 300 297 257 203 202 228 269 255 225 184 172 175 175 174 182 182 177 179 181 180 183 185 181 178 183 186 177 172 174 178 182 188 194 201 206 206 205 207 212 212 208 212 221 220 221 223 219 220 214 170 162 176 181 184 192 193 189 186 187 190 192 197 203 204 203 208
7 360 355 358 14 26 340 323 341 327 316 328 324 320 301 285 295 283 277 279 280 290 292 265 201 196 202 223 234 219 210 194 174 170 167 160 161 170 175 178 178 177 179 183 179 177 184 189 182 180 181 179 184 189 189 194 202 206 206 209 213 213 209 208 214 218 218 216 216 221 210 154 161 178 178 182 190 192 194 197 196 197 200 203 206 209 211 214
8 5 359 348 344 4 352 328 326 315 324 335 332 323 306 307 311 294 287 293 299 313 306 206 184 191 197 213 237 226 203 190 170 168 164 150 150 168 176 176 176 176 179 179 175 177 189 195 190 189 192 191 194 194 187 188 196 204 207 208 210 211 211 208 210 218 218 210 216 218 204 164 161 178 179 178 182 190 197 202 201 199 199 204 212 216 217 217
12 18 19 16 8 0 356 343 328 316 314 328 342 343 310 304 310 312 320 322 328 339 342 166 171 180 182 193 224 220 194 184 179 175 165 147 142 158 167 172 175 179 181 177 174 179 192 197 196 200 202 198 194 193 192 193 199 204 207 209 207 207 212 213 212 218 219 214 218 215 213 214 195 179 183 180 184 197 202 203 207 207 203 205 213 214 213 214
11 22 23 21 20 14 12 7 355 351 331 328 349 5 355 340 319 317 327 327 331 346 104 153 162 175 180 190 207 199 184 181 180 173 161 144 142 149 158 168 176 180 180 177 180 188 196 197 200 207 210 204 199 200 202 201 202 205 206 209 208 205 210 214 214 217 218 218 221 215 216 223 210 177 177 176 185 201 207 212 221 218 210 210 214 213 212 210
10 17 18 16 13 8 12 15 6 0 345 332 342 351 350 346 333 329 332 323 317 161 162 160 167 186 192 195 202 199 189 177 164 160 156 147 147 151 157 166 174 177 178 182 187 191 197 200 199 203 206 209 215 215 210 205 204 206 207 208 208 207 208 212 213 214 215 217 224 230 224 219 213 190 171 173 186 196 199 223 233 222 216 216 215 213 209 199
7 3 3 5 6 2 359 355 352 350 342 336 340 342 343 341 339 346 346 323 168 142 152 165 182 197 181 187 206 213 165 154 151 150 149 146 150 155 160 167 171 173 177 183 186 189 201 205 193 195 202 210 220 223 217 211 206 207 208 207 207 207 207 209 211 211 211 214 218 226 230 215 215 211 186 179 192 201 212 252 226 206 215 217 216 212 198 185
6 360 354 352 357 4 356 344 348 354 350 342 341 341 344 344 344 354 11 93 129 129 148 177 196 186 158 175 198 164 107 137 144 141 146 154 159 158 163 171 172 173 178 182 183 188 203 208 189 192 202 206 211 218 218 218 217 215 212 206 205 207 206 207 208 207 209 214 211 211 212 198 202 216 212 200 209 225 243 254 217 197 209 212 217 215 196 188
9 9 0 351 357 3 351 342 354 359 353 349 345 339 338 341 344 353 19 91 110 114 139 148 151 153 157 166 159 127 143 158 150 134 144 160 157 151 162 176 175 175 178 179 182 186 194 197 185 191 203 201 197 206 208 211 220 222 215 208 206 206 204 204 206 206 207 210 209 210 213 212 212 219 217 209 216 231 245 246 238 199 191 198 208 212 201 195
Height
3082 3081 3080 3079 3078 3078 3077 3076 3075 3075 3074 3073 3073 3073 3072 3072 3072 3072 3072 3072 3073 3073 3074 3074 3075 3076 3077 3079 3081 3081 3081 3082 3082 3083 3085 3086 3085 3087 3090 3091 3093 3095 3097 3098 3101 3103 3106 3107 3109 3110 3112 3113 3114 3116 3119 3120 3122 3123 3124 3124 3123 3123 3124 3124 3124 3124 3124 3124 3122 3121 3123 3124 3126 3127 3126 3125 3125 3128 3130 3130 3133 3135 3132 3130 3132 3134 3134 3137
3079 3078 3076 3076 3075 3074 3074 3073 3072 3071 3071 3070 3070 3070 3069 3069 3069 3068 3068 3068 3069 3069 3070 3070 3072 3073 3074 3077 3078 3077 3077 3078 3079 3080 3081 3082 3083 3085 3087 3088 3090 3092 3094 3096 3099 3102 3104 3106 3107 3109 3110 3112 3113 3114 3117 3118 3118 3120 3121 3121 3120 3121 3122 3122 3123 3122 3122 3123 3122 3120 3121 3122 3124 3125 3125 3125 3126 3127 3128 3129 3131 3132 3128 3128 3131 3132 3134 3136
3076 3075 3074 3073 3072 3071 3070 3069 3069 3068 3067 3067 3067 3067 3067 3066 3066 3066 3065 3065 3065 3066 3066 3067 3068 3069 3071 3074 3074 3074 3074 3075 3076 3076 3078 3080 3081 3082 3084 3085 3087 3090 3092 3094 3096 3099 3101 3104 3106 3107 3108 3111 3112 3113 3116 3117 3115 3117 3118 3118 3117 3119 3121 3120 3120 3120 3120 3120 3120 3120 3120 3121 3122 3123 3123 3124 3126 3126 3127 3128 3129 3129 3126 3128 3131 3131 3133 3135
3073 3071 3071 3070 3069 3068 3067 3066 3065 3064 3064 3063 3063 3063 3063 3063 3063 3063 3062 3062 3062 3062 3063 3063 3064 3065 3068 3070 3071 3070 3071 3073 3071 3071 3076 3078 3078 3080 3081 3083 3085 3087 3089 3092 3094 3096 3098 3101 3104 3105 3107 3109 3111 3112 3114 3114 3113 3115 3115 3114 3116 3118 3119 3118 3118 3118 3119 3118 3119 3120 3119 3120 3121 3121 3122 3123 3124 3125 3126 3126 3127 3127 3124 3127 3130 3130 3132 3133
3070 3069 3068 3066 3065 3065 3064 3063 3061 3061 3060 3060 3059 3059 3059 3059 3059 3059 3059 3059 3059 3059 3059 3060 3060 3062 3064 3067 3068 3067 3070 3071 3066 3068 3074 3074 3075 3077 3079 3080 3082 3084 3087 3089 3091 3093 3095 3097 3100 3103 3105 3107 3109 3110 3111 3111 3112 3112 3111 3112 3115 3117 3117 3116 3116 3116 3117 3117 3117 3117 3118 3119 3120 3119 3120 3121 3123 3124 3125 3126 3127 3126 3123 3126 3128 3128 3130 3131
3067 3066 3064 3063 3062 3061 3060 3059 3058 3058 3057 3056 3056 3055 3055 3055 3055 3055 3055 3056 3056 3056 3056 3056 3057 3059 3061 3063 3064 3064 3067 3067 3063 3065 3071 3071 3073 3075 3076 3078 3080 3082 3084 3086 3088 3090 3093 3095 3097 3099 3102 3104 3107 3108 3108 3110 3110 3110 3110 3111 3113 3114 3115 3115 3115 3113 3113 3114 3115 3116 3117 3118 3118 3118 3119 3120 3121 3123 3124 3125 3126 3125 3123 3124 3126 3127 3128 3130
3064 3063 3061 3060 3059 3058 3057 3056 3055 3054 3054 3053 3052 3052 3051 3051 3051 3051 3051 3052 3052 3052 3052 3053 3054 3055 3057 3059 3060 3060 3061 3063 3061 3064 3068 3069 3071 3072 3073 3076 3077 3079 3081 3083 3085 3088 3090 3092 3095 3097 3100 3102 3104 3106 3107 3108 3109 3108 3108 3110 3110 3111 3112 3112 3112 3111 3110 3111 3113 3114 3115 3116 3116 3117 3118 3118 3119 3121 3122 3123 3124 3124 3121 3121 3124 3125 3127 3129
3061 3060 3058 3057 3056 3055 3054 3053 3052 3051 3050 3049 3049 3048 3047 3047 3047 3047 3047 3047 3048 3048 3048 3049 3051 3052 3054 3055 3056 3055 3056 3061 3060 3060 3066 3066 3068 3070 3071 3073 3074 3076 3078 3080 3083 3086 3088 3090 3093 3096 3099 3100 3102 3104 3106 3107 3107 3106 3106 3108 3109 3109 3110 3110 3110 3109 3109 3110 3111 3111 3112 3113 3114 3116 3116 3117 3118 3119 3120 3120 3121 3120 3118 3119 3123 3124 3126 3128
3058 3056 3055 3054 3052 3051 3050 3050 3048 3047 3047 3046 3045 3045 3044 3044 3043 3044 3043 3043 3044 3044 3044 3045 3046 3048 3050 3050 3051 3050 3053 3059 3057 3057 3063 3063 3065 3068 3068 3070 3071 3073 3075 3077 3080 3083 3086 3088 3091 3095 3097 3100 3101 3103 3104 3105 3104 3104 3104 3106 3107 3107 3107 3107 3107 3108 3108 3108 3109 3110 3110 3111 3113 3114 3114 3114 3116 3117 3118 3118 3119 3117 3116 3119 3122 3123 3125 3126
3054 3053 3051 3050 3049 3048 3047 3046 3045 3044 3043 3042 3042 3041 3041 3040 3040 3040 3040 3040 3039 3039 3040 3040 3042 3044 3044 3045 3045 3045 3051 3056 3054 3055 3059 3059 3062 3064 3065 3067 3069 3070 3072 3075 3077 3080 3083 3086 3090 3094 3096 3098 3100 3101 3102 3102 3102 3103 3103 3103 3105 3105 3105 3105 3105 3106 3106 3106 3107 3108 3109 3110 3112 3112 3112 3112 3114 3115 3116 3117 3117 3115 3115 3118 3121 3122 3123 3125
3051 3049 3048 3047 3045 3044 3043 3042 3041 3040 3039 3038 3038 3037 3037 3037 3036 3036 3036 3036 3036 3036 3037 3036 3037 3038 3039 3040 3038 3042 3051 3052 3050 3052 3054 3056 3058 3060 3062 3064 3066 3068 3069 3072 3074 3077 3081 3085 3090 3093 3094 3095 3097 3098 3099 3099 3100 3101 3100 3101 3102 3103 3103 3102 3103 3104 3104 3105 3105 3107 3108 3109 3110 3110 3110 3111 3112 3113 3113 3115 3116 3114 3115 3117 3119 3121 3122 3123
3047 3046 3044 3043 3042 3040 3039 3038 3037 3036 3035 3035 3034 3034 3033 3033 3033 3032 3032 3032 3032 3033 3033 3033 3033 3033 3034 3032 3033 3043 3049 3045 3046 3048 3049 3052 3054 3056 3058 3061 3064 3065 3067 3069 3072 3075 3079 3083 3088 3090 3092 3093 3095 3096 3096 3097 3099 3099 3099 3100 3100 3100 3100 3099 3100 3101 3102 3103 3104 3106 3106 3106 3106 3107 3108 3110 3109 3110 3112 3113 3114 3114 3114 3115 3117 3119 3121 3121
3044 3042 3041 3039 3038 3037 3035 3034 3033 3032 3031 3031 3030 3030 3029 3029 3029 3029 3029 3028 3029 3029 3029 3030 3029 3029 3028 3024 3032 3043 3042 3039 3042 3043 3046 3049 3050 3052 3055 3058 3061 3063 3065 3067 3069 3072 3076 3080 3084 3087 3090 3092 3093 3094 3093 3094 3096 3097 3098 3098 3098 3098 3096 3096 3098 3099 3100 3101 3102 3104 3103 3102 3103 3104 3107 3108 3107 3108 3110 3111 3112 3112 3113 3113 3115 3117 3119 3119
3041 3039 3038 3036 3035 3033 3032 3030 3029 3028 3027 3027 3026 3026 3025 3026 3025 3025 3024 3025 3026 3026 3026 3026 3025 3026 3021 3020 3032 3038 3034 3035 3037 3039 3043 3044 3046 3049 3052 3055 3058 3060 3062 3064 3067 3069 3072 3077 3081 3085 3087 3089 3091 3092 3091 3092 3094 3095 3096 3096 3096 3094 3092 3093 3094 3095 3097 3098 3100 3102 3100 3099 3100 3102 3104 3105 3105 3106 3108 3109 3110 3110 3111 3112 3113 3115 3116 3117
3038 3036 3035 3033 3032 3030 3029 3027 3026 3024 3023 3022 3022 3022 3022 3022 3021 3021 3020 3021 3022 3022 3022 3022 3022 3022 3016 3017 3029 3032 3029 3031 3033 3036 3039 3040 3043 3046 3049 3052 3055 3058 3060 3062 3064 3067 3070 3074 3078 3080 3083 3086 3089 3089 3089 3091 3091 3092 3092 3091 3091 3091 3089 3090 3091 3092 3095 3096 3098 3099 3099 3097 3097 3098 3101 3102 3103 3105 3106 3107 3107 3107 3109 3110 3111 3113 3114 3115
3035 3033 3032 3030 3028 3027 3026 3024 3022 3021 3019 3019 3018 3018 3018 3017 3017 3016 3016 3018 3018 3018 3019 3019 3020 3019 3014 3017 3025 3026 3025 3027 3029 3033 3034 3036 3041 3043 3046 3049 3052 3055 3057 3060 3062 3065 3069 3072 3074 3077 3080 3083 3084 3085 3087 3088 3087 3087 3087 3086 3087 3088 3088 3088 3088 3090 3093 3095 3096 3096 3097 3096 3094 3095 3098 3099 3101 3103 3103 3103 3104 3104 3105 3108 3109 3111 3112 3113
3033 3031 3029 3027 3025 3024 3022 3021 3019 3017 3016 3015 3014 3014 3013 3013 3012 3012 3013 3014 3014 3015 3015 3015 3017 3016 3011 3016 3022 3021 3021 3023 3025 3028 3030 3034 3037 3040 3043 3045 3049 3052 3054 3058 3060 3062 3066 3068 3071 3074 3077 3079 3080 3083 3083 3080 3079 3081 3082 3083 3083 3084 3086 3085 3085 3088 3090 3092 3093 3093 3095 3093 3092 3093 3095 3097 3099 3100 3100 3100 3101 3102 3103 3106 3107 3108 3110 3111
3031 3029 3027 3025 3023 3021 3019 3017 3016 3014 3012 3011 3010 3009 3009 3008 3008 3009 3009 3010 3011 3011 3010 3011 3014 3015 3012 3013 3016 3017 3018 3019 3021 3024 3027 3030 3033 3037 3040 3043 3047 3049 3052 3055 3057 3060 3063 3065 3069 3072 3073 3073 3074 3075 3073 3071 3074 3077 3078 3080 3081 3082 3083 3082 3082 3085 3087 3089 3091 3091 3093 3091 3091 3093 3094 3095 3097 3099 3098 3098 3099 3099 3101 3103 3104 3105 3106 3108
3029 3027 3024 3022 3020 3018 3016 3014 3012 3010 3009 3008 3006 3005 3005 3005 3005 3005 3006 3006 3006 3006 3007 3007 3008 3011 3012 3010 3013 3014 3014 3016 3018 3020 3023 3026 3030 3033 3037 3041 3044 3046 3049 3052 3053 3056 3059 3063 3066 3065 3063 3064 3066 3069 3069 3071 3075 3076 3077 3078 3079 3079 3079 3079 3081 3082 3084 3087 3088 3088 3090 3089 3090 3092 3093 3094 3096 3096 3095 3095 3097 3097 3099 3100 3102 3103 3104 3106
3026 3024 3022 3020 3018 3015 3013 3011 3009 3007 3005 3004 3003 3002 3002 3003 3005 3005 3003 3002 3001 3001 3004 3006 3004 3004 3007 3009 3012 3012 3013 3014 3015 3018 3020 3022 3026 3031 3034 3038 3041 3044 3045 3048 3051 3053 3057 3059 3056 3053 3056 3061 3066 3068 3071 3074 3075 3075 3076 3077 3077 3076 3076 3078 3080 3080 3082 3085 3085 3086 3088 3088 3089 3090 3091 3092 3094 3094 3091 3093 3095 3096 3096 3098 3100 3102 3102 3104
3024 3022 3020 3018 3016 3013 3011 3009 3007 3004 3003 3001 3000 2999 3000 3002 3004 3003 3001 2998 2998 2998 2998 3001 3002 3000 3002 3006 3009 3010 3012 3012 3012 3015 3018 3019 3023 3028 3030 3034 3038 3039 3041 3046 3050 3052 3054 3051 3047 3051 3058 3063 3066 3067 3071 3072 3073 3074 3074 3074 3074 3074 3075 3078 3079 3079 3082 3083 3083 3085 3086 3087 3088 3088 3090 3091 3092 3092 3090 3090 3092 3093 3094 3095 3098 3100 3100 3102
3022 3020 3018 3016 3014 3011 3009 3007 3004 3002 3000 2998 2998 2998 2998 3000 3001 2999 2999 2996 2994 2995 2994 2995 2996 2995 2997 3001 3004 3006 3007 3008 3009 3012 3014 3016 3020 3024 3027 3030 3033 3035 3039 3044 3047 3048 3047 3043 3046 3054 3059 3062 3064 3066 3069 3071 3072 3073 3072 3072 3072 3072 3074 3075 3077 3078 3080 3082 3082 3083 3084 3084 3086 3087 3088 3089 3089 3090 3090 3089 3089 3090 3090 3091 3095 3097 3098 3099
3019 3017 3015 3013 3011 3009 3007 3004 3002 3000 2998 2996 2996 2996 2997 2998 2997 2997 2996 2992 2989 2991 2991 2990 2991 2991 2993 2997 3001 3003 3002 3003 3007 3009 3011 3013 3017 3022 3025 3027 3031 3035 3037 3038 3040 3041 3040 3040 3048 3055 3057 3060 3063 3064 3067 3069 3070 3071 3070 3070 3070 3071 3072 3072 3075 3077 3079 3080 3080 3082 3083 3083 3084 3085 3086 3087 3088 3089 3089 3088 3088 3089 3088 3088 3091 3093 3095 3097
3017 3015 3013 3011 3009 3007 3004 3002 3000 2998 2996 2996 2996 2996 2995 2995 2995 2995 2993 2989 2985 2985 2986 2986 2987 2987 2989 2993 2998 2998 2998 3000 3003 3006 3009 3010 3014 3020 3023 3026 3030 3033 3033 3034 3037 3038 3038 3042 3048 3052 3055 3058 3060 3062 3064 3066 3067 3068 3069 3068 3068 3069 3070 3071 3073 3076 3078 3080 3079 3080 3080 3080 3080 3081 3082 3084 3086 3087 3087 3087 3086 3087 3087 3087 3089 3091 3093 3094
3015 3013 3010 3008 3006 3004 3002 2999 2998 2997 2996 2996 2995 2994 2993 2993 2993 2993 2992 2988 2982 2981 2983 2982 2981 2981 2984 2990 2993 2993 2996 2996 2997 3002 3007 3008 3012 3017 3021 3025 3027 3029 3030 3033 3036 3037 3039 3042 3045 3049 3052 3054 3057 3059 3060 3063 3064 3066 3067 3067 3068 3069 3069 3071 3072 3074 3076 3076 3076 3078 3076 3075 3077 3078 3079 3081 3083 3084 3086 3085 3084 3085 3086 3087 3089 3091 3093 3093
3012 3010 3008 3006 3004 3001 2999 2997 2996 2996 2995 2994 2993 2992 2992 2991 2992 2992 2991 2988 2980 2977 2981 2980 2978 2978 2980 2985 2987 2991 2995 2992 2993 3000 3004 3006 3010 3015 3020 3022 3023 3026 3029 3033 3035 3035 3037 3040 3043 3045 3048 3051 3054 3055 3057 3061 3062 3062 3064 3067 3068 3069 3069 3070 3071 3072 3072 3071 3074 3076 3073 3072 3074 3075 3076 3078 3080 3082 3083 3083 3083 3084 3085 3087 3089 3091 3094 3092
3010 3008 3006 3003 3001 2998 2996 2995 2994 2993 2992 2991 2990 2990 2990 2990 2991 2991 2990 2987 2977 2972 2975 2977 2978 2976 2978 2982 2983 2988 2992 2989 2990 2996 2999 3002 3007 3012 3016 3019 3021 3023 3027 3031 3031 3030 3033 3037 3039 3042 3045 3048 3050 3052 3054 3058 3059 3060 3063 3066 3068 3069 3069 3069 3071 3071 3071 3071 3071 3073 3074 3071 3069 3069 3072 3076 3078 3079 3081 3082 3080 3083 3085 3086 3088 3090 3091 3088
3008 3006 3003 3001 2999 2996 2994 2992 2991 2991 2990 2988 2988 2988 2988 2988 2990 2989 2990 2986 2975 2969 2971 2974 2975 2975 2977 2981 2980 2983 2987 2986 2988 2991 2995 3000 3004 3009 3013 3016 3019 3021 3025 3027 3025 3026 3030 3034 3036 3038 3042 3044 3046 3049 3053 3056 3058 3059 3062 3064 3066 3068 3069 3069 3070 3070 3070 3070 3066 3068 3074 3071 3065 3065 3070 3073 3076 3076 3078 3080 3078 3080 3083 3084 3087 3089 3087 3086
3006 3004 3001 2999 2997 2994 2992 2990 2989 2988 2987 2986 2986 2986 2986 2987 2988 2988 2989 2983 2972 2969 2972 2971 2973 2975 2977 2979 2979 2982 2986 2988 2988 2989 2993 2998 3002 3006 3010 3013 3019 3021 3023 3024 3024 3026 3029 3031 3035 3037 3039 3042 3045 3049 3052 3055 3057 3059 3061 3063 3065 3067 3069 3069 3069 3069 3070 3067 3062 3064 3069 3069 3064 3064 3066 3068 3071 3072 3075 3078 3077 3079 3082 3085 3089 3088 3085 3088
3004 3002 2999 2997 2995 2992 2990 2988 2987 2985 2985 2983 2983 2983 2984 2985 2985 2985 2986 2979 2969 2969 2971 2971 2973 2975 2976 2977 2978 2981 2985 2988 2989 2988 2991 2997 3000 3005 3009 3013 3017 3020 3022 3023 3024 3026 3028 3031 3034 3035 3038 3041 3045 3048 3051 3053 3056 3059 3061 3061 3063 3066 3067 3069 3068 3068 3068 3064 3060 3061 3064 3066 3063 3061 3062 3064 3067 3069 3073 3076 3077 3078 3080 3086 3088 3086 3085 3089
3002 3000 2998 2995 2993 2991 2989 2988 2985 2983 2983 2981 2981 2982 2982 2984 2984 2982 2978 2972 2968 2970 2970 2971 2973 2974 2975 2977 2978 2980 2984 2987 2988 2987 2990 2995 2999 3002 3006 3010 3013 3017 3019 3020 3022 3023 3026 3029 3031 3033 3037 3040 3044 3046 3048 3052 3055 3057 3059 3060 3062 3063 3066 3067 3067 3068 3064 3058 3058 3060 3062 3064 3061 3058 3059 3062 3065 3069 3072 3073 3076 3078 3080 3084 3084 3083 3085 3089
2999 2998 2996 2994 2992 2990 2988 2987 2985 2983 2981 2981 2981 2982 2983 2983 2982 2978 2973 2970 2970 2971 2970 2971 2972 2973 2975 2977 2978 2980 2983 2985 2987 2987 2989 2992 2995 2998 3001 3003 3006 3009 3011 3013 3017 3021 3024 3027 3029 3033 3035 3038 3041 3042 3045 3049 3052 3053 3056 3058 3058 3058 3062 3063 3062 3063 3059 3054 3056 3060 3063 3061 3057 3057 3059 3060 3063 3067 3070 3072 3075 3077 3080 3082 3079 3080 3086 3090
2997 2995 2994 2992 2991 2989 2987 2986 2984 2982 2981 2981 2981 2982 2983 2983 2977 2972 2971 2971 2971 2970 2970 2970 2970 2971 2973 2975 2976 2978 2981 2984 2985 2987 2989 2991 2994 2997 2999 3002 3004 3005 3006 3010 3015 3017 3021 3025 3028 3031 3032 3034 3036 3036 3039 3043 3046 3048 3050 3053 3052 3050 3055 3059 3057 3056 3054 3053 3056 3060 3060 3056 3053 3056 3058 3059 3061 3064 3067 3070 3073 3075 3080 3081 3076 3077 3085 3088
2994 2993 2992 2991 2989 2988 2987 2985 2984 2982 2981 2981 2982 2982 2983 2980 2974 2971 2972 2972 2971 2970 2970 2970 2969 2970 2971 2973 2974 2976 2979 2982 2983 2986 2988 2990 2993 2995 2997 3000 3003 3005 3007 3011 3013 3013 3015 3018 3022 3025 3027 3029 3032 3034 3037 3041 3043 3045 3047 3050 3048 3045 3049 3053 3051 3050 3051 3052 3055 3057 3055 3053 3052 3054 3057 3059 3061 3063 3065 3069 3071 3073 3079 3080 3074 3075 3082 3086
2992 2991 2990 2989 2988 2987 2986 2985 2984 2983 2982 2982 2982 2982 2980 2977 2974 2972 2973 2972 2972 2971 2970 2969 2969 2969 2970 2971 2973 2975 2977 2979 2982 2985 2987 2988 2989 2991 2993 2996 2999 3003 3005 3007 3010 3011 3012 3015 3019 3023 3026 3027 3031 3034 3038 3040 3040 3043 3047 3047 3044 3043 3046 3049 3049 3049 3050 3051 3051 3052 3052 3052 3053 3054 3057 3059 3061 3063 3065 3067 3068 3071 3077 3077 3074 3075 3080 3082
2990 2989 2988 2988 2987 2986 2985 2985 2984 2983 2983 2983 2982 2980 2978 2976 2974 2973 2973 2973 2973 2971 2969 2969 2969 2968 2968 2970 2971 2973 2975 2977 2980 2983 2985 2986 2988 2989 2992 2994 2997 3000 3001 3003 3006 3007 3010 3014 3017 3022 3025 3027 3030 3033 3035 3036 3037 3041 3043 3041 3041 3044 3046 3048 3049 3049 3051 3050 3048 3049 3051 3052 3053 3054 3056 3058 3059 3061 3064 3066 3067 3071 3075 3074 3073 3076 3078 3080
2989 2988 2987 2986 2986 2985 2984 2984 2983 2983 2982 2982 2981 2979 2977 2976 2975 2973 2973 2973 2973 2972 2971 2970 2969 2967 2967 2969 2969 2971 2974 2976 2978 2981 2982 2984 2986 2988 2990 2993 2995 2998 3000 3003 3005 3006 3010 3012 3014 3019 3023 3026 3030 3032 3034 3035 3036 3038 3038 3038 3042 3046 3045 3045 3046 3048 3050 3049 3046 3046 3049 3050 3051 3051 3053 3057 3059 3060 3062 3065 3067 3070 3072 3072 3073 3076 3077 3080
2988 2987 2986 2985 2984 2984 2983 2982 2982 2982 2982 2981 2979 2977 2976 2976 2975 2974 2973 2973 2973 2973 2972 2971 2969 2966 2967 2968 2968 2970 2972 2973 2976 2978 2980 2982 2983 2985 2988 2991 2994 2997 3000 3002 3004 3007 3009 3010 3013 3019 3022 3025 3030 3032 3032 3034 3035 3036 3037 3039 3041 3041 3040 3040 3041 3044 3048 3048 3044 3043 3046 3048 3048 3048 3051 3054 3057 3059 3061 3063 3065 3067 3069 3070 3072 3074 3076 3080
2987 2986 2984 2983 2983 2982 2981 2981 2981 2981 2981 2979 2978 2977 2976 2975 2975 2974 2974 2974 2974 2973 2972 2972 2970 2967 2967 2967 2968 2970 2971 2972 2974 2976 2977 2979 2980 2982 2986 2989 2992 2996 2999 3002 3003 3006 3007 3008 3012 3018 3021 3024 3028 3029 3027 3029 3034 3036 3037 3039 3038 3037 3038 3037 3036 3040 3044 3045 3043 3042 3043 3044 3045 3046 3049 3052 3054 3057 3060 3061 3063 3064 3066 3069 3071 3071 3074 3078
2986 2984 2983 2983 2982 2981 2980 2980 2980 2979 2979 2978 2976 2976 2976 2976 2975 2974 2973 2974 2974 2973 2972 2971 2970 2968 2967 2966 2966 2969 2971 2971 2974 2974 2975 2978 2980 2981 2985 2988 2991 2995 2998 3001 3003 3005 3006 3007 3011 3017 3020 3022 3022 3022 3023 3025 3030 3032 3032 3033 3034 3036 3036 3037 3037 3039 3041 3040 3041 3042 3041 3039 3041 3045 3047 3049 3052 3055 3057 3059 3061 3063 3064 3067 3069 3070 3072 3076
2985 2983 2983 2982 2980 2979 2980 2979 2979 2979 2978 2977 2976 2976 2976 2975 2975 2974 2973 2973 2973 2973 2971 2970 2969 2968 2967 2967 2966 2968 2970 2972 2973 2974 2974 2977 2980 2981 2984 2987 2990 2993 2996 2999 3001 3003 3004 3006 3010 3014 3016 3017 3017 3020 3023 3025 3027 3030 3030 3029 3030 3033 3035 3036 3036 3037 3037 3036 3037 3040 3039 3037 3040 3044 3045 3048 3051 3053 3055 3057 3059 3061 3063 3065 3068 3068 3071 3074
2985 2984 2983 2981 2979 2978 2979 2979 2979 2978 2978 2977 2976 2976 2976 2975 2975 2975 2974 2973 2973 2972 2971 2969 2969 2968 2967 2967 2967 2968 2970 2971 2972 2973 2974 2977 2979 2981 2983 2987 2990 2993 2995 2997 3000 3003 3004 3006 3009 3012 3013 3015 3017 3020 3023 3025 3027 3030 3030 3029 3030 3031 3033 3033 3032 3034 3036 3035 3034 3036 3037 3037 3039 3042 3044 3047 3050 3051 3053 3055 3057 3060 3062 3064 3065 3067 3070 3072
2986 2985 2983 2981 2980 2979 2979 2979 2978 2978 2977 2977 2976 2976 2976 2976 2975 2975 2974 2973 2972 2971 2970 2969 2969 2969 2968 2969 2969 2969 2971 2972 2972 2973 2974 2977 2979 2980 2983 2987 2990 2992 2994 2997 2999 3002 3004 3006 3007 3009 3012 3015 3018 3020 3023 3026 3027 3027 3027 3029 3029 3028 3030 3031 3032 3033 3034 3033 3033 3033 3034 3036 3039 3040 3043 3046 3049 3050 3051 3052 3055 3058 3059 3061 3063 3066 3069 3070
2986 2985 2983 2982 2981 2980 2980 2979 2979 2977 2977 2976 2975 2975 2976 2975 2974 2974 2974 2974 2972 2971 2970 2969 2969 2969 2969 2969 2970 2970 2970 2971 2973 2973 2974 2976 2978 2980 2982 2986 2989 2991 2994 2996 2998 3000 3003 3004 3005 3006 3007 3011 3014 3016 3019 3021 3020 3020 3022 3025 3026 3027 3030 3032 3033 3034 3033 3033 3033 3032 3032 3036 3039 3041 3043 3046 3048 3049 3050 3052 3054 3055 3057 3059 3062 3065 3067 3068
2987 2985 2984 2983 2982 2981 2980 2980 2979 2978 2977 2976 2976 2975 2974 2974 2974 2973 2973 2972 2971 2970 2969 2968 2968 2968 2969 2969 2970 2970 2969 2970 2972 2974 2974 2976 2978 2980 2982 2985 2988 2991 2994 2997 2998 3000 3002 3003 3003 3002 3001 3003 3005 3005 3007 3012 3015 3017 3020 3023 3025 3027 3029 3031 3032 3033 3032 3032 3032 3031 3033 3036 3039 3041 3043 3045 3047 3048 3049 3050 3051 3053 3055 3058 3060 3063 3064 3066
2987 2986 2985 2983 2982 2981 2980 2980 2979 2979 2978 2977 2976 2975 2974 2974 2973 2972 2972 2971 2970 2969 2968 2968 2968 2968 2969 2970 2970 2971 2970 2970 2972 2974 2974 2976 2978 2980 2983 2985 2989 2992 2994 2997 2999 3000 3001 3002 3001 3001 3001 3001 3003 3005 3007 3012 3015 3017 3019 3022 3024 3026 3027 3029 3031 3030 3030 3032 3032 3032 3035 3038 3040 3042 3043 3044 3045 3046 3046 3048 3050 3051 3053 3056 3058 3060 3062 3064
2989 2987 2985 2983 2982 2981 2980 2980 2979 2979 2978 2977 2976 2975 2974 2974 2973 2972 2971 2970 2969 2969 2968 2968 2969 2969 2969 2970 2971 2972 2972 2972 2973 2974 2975 2977 2978 2980 2982 2986 2989 2992 2993 2995 2998 3000 3001 3001 3000 3001 3002 3003 3005 3008 3011 3013 3014 3016 3018 3020 3022 3024 3025 3026 3027 3028 3030 3031 3030 3032 3036 3037 3038 3040 3042 3042 3043 3043 3045 3047 3048 3049 3051 3054 3056 3058 3060 3062
2990 2988 2986 2985 2983 2982 2981 2980 2979 2978 2978 2977 2976 2975 2975 2974 2973 2972 2971 2970 2969 2969 2969 2969 2969 2970 2970 2971 2971 2972 2973 2974 2974 2975 2976 2977 2978 2980 2983 2987 2989 2991 2993 2996 2998 3000 3000 3000 3001 3002 3003 3003 3005 3008 3009 3011 3013 3015 3017 3018 3020 3022 3023 3024 3026 3029 3030 3030 3030 3033 3035 3036 3037 3039 3040 3041 3041 3042 3044 3046 3046 3048 3050 3052 3054 3056 3058 3060
2990 2989 2987 2986 2985 2983 2982 2981 2980 2979 2978 2977 2976 2975 2974 2973 2973 2972 2971 2969 2969 2969 2969 2969 2969 2970 2970 2971 2971 2971 2972 2974 2974 2975 2977 2977 2978 2980 2983 2986 2989 2991 2994 2996 2998 3000 3000 3000 3001 3003 3004 3004 3006 3007 3008 3009 3011 3013 3015 3017 3019 3020 3022 3024 3026 3029 3030 3031 3032 3034 3034 3036 3037 3037 3038 3040 3041 3042 3044 3045 3046 3047 3049 3051 3052 3054 3056 3058
2991 2989 2988 2987 2985 2984 2982 2981 2980 2979 2978 2977 2976 2975 2974 2973 2973 2972 2970 2970 2969 2969 2970 2969 2969 2969 2970 2971 2971 2970 2971 2973 2973 2974 2976 2978 2980 2981 2983 2985 2988 2991 2994 2996 2998 2999 2999 2999 3000 3003 3004 3006 3007 3007 3008 3008 3009 3011 3013 3016 3018 3020 3022 3024 3026 3028 3030 3031 3033 3034 3035 3036 3036 3034 3036 3038 3040 3042 3044 3044 3045 3046 3047 3049 3051 3052 3054 3057
2992 2991 2989 2987 2985 2984 2983 2982 2981 2979 2978 2977 2976 2975 2974 2973 2972 2971 2970 2970 2970 2970 2970 2970 2969 2969 2969 2970 2971 2970 2971 2973 2973 2973 2975 2978 2979 2981 2983 2985 2987 2990 2992 2995 2997 2998 2999 2999 3001 3003 3004 3005 3007 3008 3008 3009 3011 3011 3012 3013 3016 3018 3020 3022 3024 3027 3029 3031 3033 3034 3035 3036 3033 3031 3035 3039 3040 3041 3043 3044 3045 3045 3046 3048 3049 3051 3053 3055
2993 2991 2990 2988 2986 2984 2983 2982 2981 2980 2979 2977 2976 2975 2974 2973 2972 2972 2971 2971 2971 2971 2971 2970 2971 2970 2970 2970 2970 2970 2972 2973 2973 2974 2976 2977 2978 2981 2983 2985 2987 2989 2991 2993 2995 2997 2998 2999 3000 3002 3002 3003 3006 3008 3008 3010 3011 3010 3009 3011 3014 3016 3018 3021 3023 3026 3028 3030 3032 3032 3033 3035 3032 3031 3035 3039 3039 3040 3042 3043 3044 3045 3046 3047 3048 3050 3051 3053